Temperature
20 20 20 20 18 18 19 20 21 21 21 21 21 20 20 19 19 18 17 18 18 18 18 18 18 18 18 18 18 18 18 18 18 18 18 18 18 18 17 18 18 18 18 18 18 18 18 18 18
20 20 20 19 18 18 20 20 20 21 21 21 21 20 19 18 18 17 17 18 18 18 18 18 18 18 18 18 18 18 18 18 18 18 17 17 17 17 17 17 17 17 17 17 17 17 17 17 17
20 20 20 17 18 19 20 20 20 22 22 22 21 20 19 18 18 17 18 18 18 18 18 18 18 18 18 18 18 18 18 18 18 17 17 17 17 17 17 17 17 17 17 17 17 17 17 17 17
20 20 19 18 20 20 20 20 21 22 22 21 20 19 19 19 18 18 18 18 18 18 18 18 18 18 18 18 18 18 17 17 17 17 17 17 17 17 17 17 17 17 17 17 17 17 17 17 17
20 20 18 19 20 20 20 21 22 21 21 20 19 18 18 18 19 18 18 18 18 18 18 18 18 18 18 18 18 18 17 17 17 17 17 17 17 17 17 16 16 17 17 17 17 17 17 17 17
20 18 18 19 20 20 20 21 21 21 20 20 19 18 18 18 18 18 18 18 18 18 18 18 18 18 18 18 17 17 17 17 17 17 17 16 16 16 16 17 17 17 17 17 17 17 17 17 17
19 17 18 19 20 20 20 21 21 20 20 20 19 18 17 18 18 18 18 18 18 18 18 18 18 18 18 17 17 17 17 17 17 16 16 16 16 16 16 17 16 16 17 17 17 17 17 17 17
20 17 18 18 19 20 21 21 21 21 20 20 20 18 18 18 18 18 18 18 18 18 18 18 18 17 17 17 17 17 17 17 17 16 16 16 16 16 16 16 16 16 16 16 16 16 17 17 17
20 17 18 19 19 20 21 21 21 21 20 20 20 19 18 18 18 18 18 17 18 18 18 18 17 17 17 17 17 17 17 17 17 17 16 16 16 16 16 16 16 16 16 16 16 16 16 16 17
19 17 19 19 19 20 20 21 21 20 19 19 19 19 18 18 18 18 18 18 18 18 17 18 17 17 17 17 17 17 17 17 17 16 16 16 16 16 16 16 16 16 16 16 16 16 16 16 17
19 18 19 20 20 20 20 21 20 19 18 19 19 18 18 18 18 18 18 18 18 18 18 18 17 17 17 17 17 17 17 17 17 16 16 16 16 16 16 16 16 16 16 16 16 16 16 16 16
19 19 20 20 21 21 21 20 20 19 19 20 20 19 18 18 18 18 18 18 18 18 18 18 17 17 17 17 17 17 17 17 17 16 16 16 16 16 16 16 16 16 16 16 16 16 16 16 16
19 19 20 21 21 21 21 20 20 19 20 20 19 19 19 19 18 18 18 18 18 18 18 18 17 17 17 17 17 17 17 17 17 16 16 16 16 16 16 16 16 16 16 16 16 16 16 16 16
20 20 20 20 21 21 20 20 19 19 19 19 19 19 19 19 19 18 18 18 18 18 18 18 17 17 17 17 17 17 17 17 17 16 16 16 16 16 16 16 16 16 16 16 16 16 16 16 16
20 19 19 20 20 20 20 19 19 19 19 19 19 19 19 19 19 19 19 18 18 18 18 18 18 17 17 17 17 17 17 17 16 16 16 16 16 16 16 16 16 16 16 16 16 16 16 16 16
19 19 18 19 20 20 19 18 18 19 19 19 19 19 19 19 19 19 19 19 18 18 18 18 18 17 17 17 17 17 17 16 16 16 16 16 16 16 16 16 16 16 16 16 16 16 16 16 16
18 17 18 18 19 19 19 18 18 19 19 19 19 19 19 19 19 19 19 19 19 18 18 18 18 17 17 17 17 17 17 16 16 16 16 16 16 16 16 16 16 16 16 16 16 16 16 16 16
17 18 18 18 19 19 18 17 18 19 19 19 19 19 19 19 19 19 19 19 19 18 18 18 18 17 17 17 17 17 16 16 16 16 16 16 16 16 16 16 16 15 15 15 15 16 16 16 16
18 18 18 18 19 19 18 18 18 18 18 18 19 19 19 19 19 19 19 19 18 18 18 18 18 17 17 17 17 16 16 16 16 16 16 16 16 16 16 16 15 15 15 15 15 15 16 16 16
19 18 18 18 19 19 18 17 18 18 18 19 19 19 19 19 19 19 19 19 19 18 18 18 18 17 17 17 17 16 16 16 16 16 16 16 16 16 16 16 15 15 15 15 15 15 15 15 15
19 18 18 18 19 19 18 18 17 18 18 19 19 19 19 19 19 19 19 19 19 18 18 18 18 17 17 17 17 16 16 16 16 16 16 16 16 16 15 15 15 15 15 15 15 15 15 15 15
18 20 19 19 18 17 18 16 17 17 17 18 18 19 19 19 19 19 19 19 19 18 18 18 18 17 17 17 17 16 16 16 16 16 16 16 15 15 15 15 15 15 15 15 15 15 15 15 15
19 20 20 19 18 17 17 17 16 16 17 17 18 19 19 19 19 19 19 19 19 19 18 18 18 17 17 17 17 17 16 16 16 16 16 16 15 15 15 15 15 15 15 15 15 15 15 15 15
20 19 19 17 16 16 17 17 16 16 17 18 18 19 19 19 19 19 19 19 19 18 18 18 18 17 17 17 17 17 16 16 16 16 16 16 16 15 15 15 15 15 15 15 15 15 15 15 15
18 16 16 16 16 16 17 17 17 17 18 18 18 19 19 19 19 19 19 19 19 18 18 18 17 17 17 17 17 17 17 16 16 16 16 16 16 16 15 15 15 15 15 15 15 15 15 15 15
18 17 16 16 16 16 17 17 18 19 19 20 19 19 19 19 19 19 19 19 19 18 18 18 18 17 17 17 17 17 17 16 16 16 16 16 16 16 15 15 15 15 15 15 15 15 15 15 15
18 17 16 16 17 16 17 17 18 19 18 18 19 19 19 19 19 19 19 19 19 18 18 18 18 17 17 17 17 17 17 16 16 16 16 16 16 15 15 15 15 15 15 15 15 15 14 14 14
18 17 16 16 16 16 17 18 17 18 18 18 18 18 19 19 19 19 19 19 19 18 18 18 18 17 17 17 17 17 16 16 16 16 16 16 16 15 15 15 15 15 15 15 15 14 14 14 14
18 18 17 15 15 16 16 17 19 18 18 18 18 18 19 19 19 19 19 19 19 18 18 18 18 17 17 17 17 17 16 16 16 16 16 16 16 15 15 15 15 15 15 14 14 14 14 14 14
19 19 17 16 16 15 16 17 19 18 18 18 18 19 19 19 19 19 19 19 18 18 18 18 18 17 17 17 17 16 16 16 16 16 16 16 15 15 15 15 15 15 14 14 14 14 14 14 14
Wind_Speed
7 5 2 3 4 4 1 2 1 2 3 4 8 9 9 6 5 7 4 10 11 9 10 13 14 14 14 14 14 14 14 14 14 14 14 13 13 12 12 11 11 10 10 9 9 8 8 8 7
3 2 3 4 4 3 1 1 3 4 6 7 8 8 8 7 7 8 6 11 12 10 11 13 15 15 14 14 14 14 14 13 13 13 12 12 12 11 10 10 10 9 9 8 8 7 7 7 6
2 1 3 3 2 3 3 2 4 5 5 5 5 6 5 5 6 5 9 13 12 10 12 14 16 15 15 14 14 14 14 13 13 12 11 10 10 9 9 9 8 8 8 7 7 6 6 6 5
2 4 4 4 1 2 5 5 5 7 6 6 7 6 5 4 4 9 13 13 12 9 12 14 16 15 14 14 14 14 13 13 12 11 10 9 9 8 8 7 7 7 7 7 6 5 4 4 4
3 4 4 2 0 1 2 3 5 7 5 6 9 7 5 4 11 15 14 13 13 9 11 14 15 15 14 14 14 14 13 12 11 10 8 8 8 7 7 7 7 6 6 5 4 3 3 3 3
4 4 3 1 1 2 1 3 6 10 9 9 9 7 4 5 12 12 12 12 11 10 10 13 14 14 14 13 13 12 11 11 9 8 7 6 6 5 5 5 5 4 4 3 2 2 1 2 2
4 4 1 1 2 2 2 3 5 7 7 5 7 7 5 5 9 11 11 11 10 9 9 9 11 12 13 13 12 11 10 9 8 6 6 5 5 4 4 4 4 3 2 1 1 0 1 2 3
4 4 2 1 3 1 1 3 6 8 6 6 5 8 6 7 9 10 10 10 9 7 6 7 9 9 9 10 10 9 8 7 6 4 4 3 3 3 3 3 3 2 1 0 1 2 2 3 3
4 5 2 0 2 1 1 5 5 6 8 5 5 6 9 12 12 12 10 8 7 7 5 5 6 7 8 7 7 7 6 5 4 2 2 1 1 2 2 3 3 2 1 1 2 3 4 4 4
4 3 1 1 2 2 3 5 4 6 9 7 8 9 12 12 13 13 11 10 8 7 6 5 5 5 6 6 5 4 2 2 1 1 0 1 1 2 2 3 3 2 3 3 3 4 4 4 3
3 3 1 1 1 3 4 4 4 9 7 9 14 14 13 12 11 11 10 10 9 8 7 6 5 5 4 3 4 3 2 1 1 1 1 1 1 1 0 0 2 3 3 3 3 3 3 2 2
2 0 1 1 2 3 3 4 5 6 7 10 14 15 12 12 10 9 9 9 8 7 6 6 5 4 4 4 4 4 3 2 2 2 3 3 2 1 1 1 2 2 2 2 2 2 2 2 1
2 1 0 2 3 4 5 5 6 5 8 11 13 13 12 10 9 7 7 7 8 8 7 6 6 6 4 4 3 4 3 3 2 3 4 5 3 2 2 1 3 3 3 2 2 2 2 2 2
1 2 2 2 2 3 5 4 6 5 9 12 12 11 10 10 10 8 8 7 7 7 7 7 7 5 5 4 3 2 3 3 4 5 5 6 6 4 3 3 3 3 3 4 3 3 2 2 2
1 3 3 1 1 2 5 4 3 7 9 10 10 9 9 9 9 9 9 8 7 8 8 8 8 6 5 4 3 3 4 5 5 5 7 7 7 6 5 3 3 3 5 6 6 5 4 3 3
3 3 1 2 0 1 5 3 3 6 10 9 7 7 8 7 9 9 8 7 7 8 7 7 8 7 5 4 3 4 5 6 5 6 7 8 8 8 6 3 3 5 6 5 3 3 4 4 3
3 1 1 2 2 2 4 4 4 5 9 9 8 7 7 7 7 7 8 8 8 9 8 7 7 7 5 4 4 4 5 5 5 7 7 7 8 8 7 4 3 6 5 3 3 4 3 3 3
2 2 1 2 2 3 4 5 5 5 8 9 8 7 7 8 9 9 9 8 8 8 8 8 6 6 6 4 4 4 4 4 4 5 6 7 8 8 7 4 5 6 4 4 4 4 4 2 2
3 2 1 2 2 3 4 5 6 6 6 7 8 8 9 9 8 8 8 8 8 8 8 7 7 6 5 4 4 4 2 2 2 3 6 7 7 8 7 4 4 4 4 3 3 3 4 4 3
3 3 1 1 0 2 4 4 6 7 7 9 10 10 10 9 8 9 9 8 8 9 8 8 8 6 6 4 3 3 3 2 1 2 5 7 7 6 6 5 3 3 4 5 5 4 3 3 3
3 5 4 3 0 1 3 2 5 6 5 7 8 9 10 12 12 12 11 9 10 9 9 9 8 7 6 5 4 4 4 3 3 3 3 4 6 7 6 5 4 4 3 3 3 4 4 3 4
3 4 5 4 3 2 3 3 6 7 7 8 9 10 11 11 11 11 12 10 10 10 9 9 8 7 6 7 6 6 4 3 1 1 1 2 5 6 7 6 5 4 3 3 3 3 3 3 3
4 3 3 3 3 0 1 2 6 4 8 10 11 12 12 12 13 13 13 12 10 10 10 9 8 7 6 7 7 7 4 3 1 1 2 3 3 5 6 6 5 4 3 3 4 4 4 3 3
2 3 3 3 3 2 5 5 6 6 10 11 11 12 12 12 12 12 12 10 9 9 9 9 8 6 6 6 7 7 6 5 4 3 2 2 2 2 4 5 5 4 3 3 3 4 5 4 4
4 5 3 3 2 5 4 4 8 9 10 12 13 12 11 12 12 12 13 12 11 11 10 9 9 7 6 7 6 6 6 6 5 4 3 3 1 1 2 3 3 3 3 4 4 5 5 4 5
4 6 5 3 3 4 2 5 7 7 7 8 10 11 11 11 12 13 14 13 12 12 11 10 10 8 7 7 6 5 5 4 3 4 4 3 2 2 2 3 3 4 5 5 5 4 4 5 5
4 4 5 4 2 2 4 5 5 2 4 6 9 10 11 12 12 13 12 13 12 12 12 11 11 8 8 7 6 5 5 5 4 4 3 3 2 3 4 4 4 5 6 5 5 5 4 5 5
6 6 4 3 2 2 4 4 4 3 4 7 9 11 12 11 11 12 12 12 12 11 10 10 10 9 8 8 6 6 5 5 4 5 5 5 4 4 5 5 5 5 5 5 5 5 5 6 4
4 3 4 3 3 3 3 6 5 8 8 10 11 11 11 12 12 12 11 11 10 10 10 9 9 8 8 7 6 6 5 5 5 5 5 5 4 5 5 5 5 5 5 5 6 5 5 6 5
6 7 7 4 3 3 3 6 5 6 6 8 10 9 10 11 11 11 11 10 10 11 10 10 10 9 8 8 7 7 6 6 5 5 5 5 6 5 5 5 5 5 5 4 5 5 5 6 5
Wind_Direction
305 327 70 62 54 54 55 289 172 90 69 55 75 85 84 64 89 126 146 137 129 129 126 124 121 118 116 114 113 110 107 103 100 97 95 93 91 89 86 85 86 84 83 83 81 81 81 78 74
318 349 61 60 80 82 331 294 98 101 136 123 78 74 75 71 80 107 124 134 131 130 129 128 124 119 117 116 116 115 110 106 103 98 96 94 92 89 88 88 87 85 84 83 80 78 76 75 70
305 102 76 69 103 161 169 206 134 104 107 100 80 55 66 94 100 113 141 138 130 126 126 128 124 120 119 118 117 116 114 110 106 101 99 97 94 91 90 92 91 89 88 88 83 76 70 65 60
55 46 58 74 138 216 168 188 150 110 67 64 94 69 59 84 108 131 139 134 126 122 124 127 125 122 122 120 118 118 115 114 111 107 105 103 100 98 97 98 97 94 92 91 87 81 70 60 48
71 74 56 51 207 92 151 162 126 104 84 80 91 89 68 49 116 131 137 134 129 125 127 129 129 127 125 123 120 120 121 119 115 112 110 107 103 102 102 100 98 97 97 97 92 82 63 50 36
58 67 79 95 104 97 108 92 93 96 105 103 98 101 89 115 122 133 136 132 130 131 133 133 133 131 129 126 124 124 124 123 120 119 116 112 111 109 112 115 114 111 105 100 95 79 33 10 3
100 89 111 175 116 91 127 125 112 116 116 114 115 103 116 128 133 135 132 127 126 128 127 132 136 135 134 134 133 131 131 131 129 129 128 126 129 130 134 138 141 135 126 114 96 21 330 333 338
121 96 45 25 115 114 140 109 124 120 108 117 111 122 149 160 136 123 120 123 126 128 129 132 135 139 140 140 141 142 142 139 137 140 144 145 145 153 160 171 177 158 137 96 308 309 309 316 324
87 77 62 4 126 152 102 96 86 83 96 80 80 119 144 141 123 119 119 121 129 137 141 139 140 149 152 153 154 153 147 144 140 141 152 141 177 199 201 210 219 217 247 291 306 306 312 322 328
82 107 206 209 155 147 100 100 110 95 89 85 89 106 127 129 128 133 140 144 147 153 160 159 156 160 164 163 152 153 147 145 124 102 151 144 185 223 231 234 243 277 287 302 317 321 325 344 344
117 156 204 32 98 107 89 78 79 110 116 143 142 142 139 133 136 145 152 154 159 159 160 161 162 166 166 150 137 132 132 112 85 98 153 132 88 51 26 326 348 347 342 340 344 3 2 6 5
110 231 207 147 91 93 95 96 86 113 154 157 147 146 145 143 148 154 154 155 150 149 158 155 146 141 141 128 125 128 128 97 67 62 87 99 87 64 63 18 352 3 14 12 20 33 28 33 36
107 205 102 112 88 94 90 98 105 115 132 137 138 140 147 147 149 151 146 143 139 145 145 142 132 129 122 109 106 109 104 89 74 58 72 99 99 80 68 32 42 37 51 57 49 54 46 36 38
167 124 99 94 92 81 97 91 99 134 134 137 142 147 150 150 151 146 143 144 145 142 137 131 125 121 113 105 100 96 96 89 71 65 65 81 88 82 71 56 49 41 49 62 66 63 58 38 40
85 87 41 13 95 122 90 56 128 152 140 143 149 151 150 152 151 155 160 158 152 142 137 131 128 118 112 108 101 94 91 83 72 65 68 75 82 82 78 63 47 38 54 63 59 51 51 48 43
39 64 57 306 206 150 118 153 161 156 146 152 157 156 156 160 162 162 156 155 152 141 135 131 130 121 115 110 98 90 88 80 68 68 69 70 77 85 78 64 48 50 60 60 62 48 48 40 38
25 97 197 301 288 152 133 167 182 171 158 165 170 168 163 160 164 162 156 155 154 145 136 129 123 123 123 115 99 90 84 72 63 68 66 65 69 77 78 65 53 61 58 45 55 49 52 45 32
199 196 194 221 254 132 147 180 186 180 168 174 174 175 171 169 177 170 162 155 148 141 139 138 132 127 117 100 85 71 61 49 53 65 68 70 72 77 77 66 53 60 59 45 47 51 39 46 40
179 177 206 251 226 143 161 180 194 193 182 186 183 178 180 182 180 167 158 150 142 141 143 143 135 130 122 111 105 99 86 60 45 52 66 70 72 74 77 71 57 56 63 54 51 56 43 29 36
185 186 214 319 255 151 158 203 209 207 198 195 188 186 183 171 169 169 163 157 155 156 152 143 142 142 137 133 132 132 128 102 85 48 51 62 70 70 77 78 72 65 66 54 49 59 56 27 32
206 193 195 184 174 113 144 264 227 228 205 200 192 189 184 177 175 173 170 169 162 162 162 156 154 147 140 130 111 93 69 49 42 42 31 34 66 71 73 79 77 68 75 71 60 67 77 52 20
222 213 176 169 146 241 190 233 247 217 216 209 202 192 189 184 178 175 174 172 172 173 164 156 155 148 144 135 130 131 132 136 168 142 63 36 59 70 70 74 74 69 66 66 59 70 78 86 47
203 185 160 175 150 214 231 198 268 210 216 218 209 199 193 188 180 178 176 173 171 166 159 156 151 147 145 142 145 141 139 149 140 99 80 53 40 58 67 74 75 69 64 63 58 62 65 76 82
146 71 49 61 84 268 221 193 261 215 210 205 204 200 192 186 181 178 174 167 165 159 152 151 148 148 147 142 144 147 147 141 130 121 109 76 43 36 51 70 74 72 68 67 65 69 70 70 73
90 88 45 0 350 256 221 197 248 231 211 198 192 195 190 182 177 172 169 168 166 161 158 154 151 152 152 146 152 156 154 148 149 149 147 134 105 68 54 64 70 72 76 73 72 73 65 65 70
164 141 158 194 233 282 265 228 258 251 204 187 181 184 179 177 177 176 176 171 169 166 161 159 158 157 156 156 163 159 154 146 148 153 154 155 152 145 109 85 81 78 76 75 73 72 69 68 66
146 175 173 152 234 272 277 282 311 27 137 162 169 174 181 179 177 176 176 172 169 167 167 167 162 157 159 162 160 152 149 142 143 145 140 143 136 121 103 93 88 77 74 72 76 72 66 70 66
159 156 113 134 190 265 291 274 249 231 203 183 176 181 185 180 179 175 176 173 170 169 169 165 159 158 162 161 163 153 149 146 136 125 126 128 124 109 106 94 87 80 72 71 76 72 68 74 63
154 156 142 150 176 176 259 271 228 203 198 192 191 187 184 181 179 178 177 175 168 162 161 162 160 155 158 159 154 144 144 136 129 127 131 129 120 114 112 107 99 88 78 75 78 74 76 77 64
179 184 157 165 216 189 208 269 267 211 197 191 191 188 183 180 178 175 171 166 164 164 165 168 166 163 165 161 151 146 140 131 128 129 129 124 118 115 114 109 104 94 85 80 84 83 79 80 73
Height
1510 1510 1509 1509 1512 1519 1521 1515 1509 1508 1509 1509 1507 1509 1512 1516 1520 1529 1527 1527 1529 1530 1531 1533 1533 1534 1534 1535 1535 1536 1536 1537 1537 1538 1538 1539 1539 1539 1540 1540 1540 1540 1541 1541 1541 1541 1542 1542 1542
1510 1509 1510 1510 1517 1528 1523 1513 1510 1508 1509 1509 1510 1512 1514 1519 1521 1523 1525 1528 1530 1531 1532 1533 1534 1535 1535 1536 1536 1537 1537 1537 1538 1538 1539 1539 1539 1540 1540 1540 1540 1541 1541 1541 1541 1542 1542 1542 1543
1509 1509 1510 1512 1519 1524 1520 1512 1509 1507 1508 1508 1512 1514 1517 1521 1523 1524 1527 1529 1531 1532 1533 1534 1535 1536 1536 1536 1537 1537 1537 1538 1539 1539 1539 1540 1540 1540 1540 1541 1541 1541 1541 1541 1542 1542 1542 1542 1543
1509 1510 1511 1516 1518 1514 1511 1509 1507 1507 1510 1510 1512 1518 1521 1524 1524 1525 1528 1530 1532 1533 1535 1536 1536 1537 1537 1537 1538 1538 1539 1539 1540 1540 1540 1540 1541 1541 1541 1541 1541 1541 1541 1542 1542 1542 1542 1543 1543
1509 1509 1514 1519 1516 1511 1508 1507 1506 1508 1511 1513 1514 1520 1524 1526 1526 1527 1529 1532 1533 1534 1535 1537 1537 1538 1539 1539 1539 1540 1540 1541 1541 1541 1541 1541 1542 1542 1542 1542 1542 1542 1542 1542 1542 1542 1543 1543 1543
1509 1510 1521 1524 1516 1511 1509 1509 1509 1511 1514 1516 1517 1521 1526 1528 1528 1529 1531 1533 1534 1535 1536 1538 1539 1540 1540 1540 1541 1541 1542 1542 1542 1542 1542 1543 1543 1543 1543 1542 1542 1542 1543 1543 1543 1543 1543 1543 1544
1510 1514 1519 1519 1517 1514 1511 1510 1511 1512 1515 1517 1518 1522 1527 1529 1530 1531 1533 1534 1536 1537 1538 1539 1540 1541 1542 1542 1543 1543 1543 1544 1544 1544 1544 1544 1544 1544 1544 1543 1543 1543 1543 1543 1543 1543 1544 1544 1544
1508 1513 1518 1519 1517 1516 1511 1511 1512 1513 1516 1519 1519 1522 1527 1530 1531 1533 1534 1536 1538 1539 1540 1541 1542 1543 1543 1544 1544 1545 1545 1545 1546 1546 1545 1545 1545 1545 1544 1544 1544 1544 1544 1544 1544 1544 1545 1545 1545
1509 1518 1523 1518 1517 1515 1512 1512 1514 1515 1516 1519 1520 1522 1525 1529 1532 1534 1536 1537 1539 1541 1542 1543 1543 1544 1545 1545 1546 1546 1547 1547 1547 1547 1547 1546 1546 1546 1545 1546 1545 1545 1545 1545 1545 1545 1545 1545 1545
1510 1520 1518 1514 1513 1513 1512 1513 1514 1517 1518 1521 1523 1525 1527 1530 1532 1534 1536 1538 1540 1541 1543 1544 1545 1545 1546 1547 1547 1548 1548 1548 1548 1548 1548 1547 1547 1547 1547 1546 1546 1546 1546 1546 1546 1546 1546 1546 1546
1511 1515 1513 1512 1512 1512 1512 1513 1515 1517 1522 1522 1524 1526 1529 1531 1533 1535 1537 1539 1540 1542 1543 1545 1546 1547 1547 1548 1549 1549 1549 1549 1549 1549 1549 1549 1548 1548 1548 1547 1547 1547 1547 1546 1546 1546 1546 1547 1547
1512 1513 1512 1512 1512 1512 1513 1514 1517 1518 1521 1522 1524 1526 1529 1531 1533 1536 1537 1539 1541 1543 1544 1546 1547 1548 1548 1549 1550 1550 1550 1550 1550 1550 1550 1549 1549 1549 1549 1548 1548 1548 1547 1547 1547 1547 1547 1547 1547
1513 1514 1513 1512 1513 1514 1514 1516 1518 1520 1522 1524 1526 1528 1530 1532 1534 1537 1538 1540 1542 1543 1545 1546 1547 1549 1550 1550 1551 1551 1551 1551 1551 1551 1551 1550 1550 1550 1549 1549 1548 1548 1548 1548 1548 1547 1547 1547 1547
1513 1513 1514 1514 1514 1515 1516 1518 1519 1523 1524 1526 1527 1529 1531 1533 1535 1537 1539 1540 1542 1544 1545 1547 1548 1550 1550 1551 1551 1552 1552 1552 1552 1552 1552 1551 1551 1550 1550 1550 1549 1549 1549 1548 1548 1548 1547 1547 1547
1513 1515 1516 1516 1515 1516 1517 1522 1522 1523 1525 1527 1529 1530 1532 1534 1535 1537 1539 1541 1542 1544 1546 1547 1549 1550 1551 1551 1552 1552 1553 1553 1553 1553 1553 1552 1552 1551 1551 1550 1550 1550 1549 1549 1548 1548 1548 1548 1548
1515 1519 1525 1519 1517 1517 1522 1530 1524 1524 1525 1527 1529 1531 1533 1534 1536 1537 1539 1541 1543 1544 1546 1548 1549 1550 1551 1552 1553 1553 1553 1554 1554 1554 1554 1553 1552 1552 1551 1551 1550 1550 1550 1549 1549 1548 1548 1548 1548
1523 1528 1528 1523 1517 1518 1522 1528 1524 1524 1525 1526 1529 1531 1533 1534 1536 1538 1539 1541 1543 1545 1547 1548 1549 1551 1552 1552 1553 1554 1554 1554 1554 1554 1554 1554 1553 1553 1552 1552 1551 1551 1550 1550 1549 1549 1549 1549 1549
1529 1528 1527 1525 1519 1519 1523 1525 1524 1524 1525 1526 1528 1530 1532 1534 1536 1537 1539 1541 1543 1545 1547 1548 1549 1551 1552 1553 1554 1554 1555 1555 1555 1555 1555 1555 1554 1553 1553 1552 1552 1551 1551 1550 1550 1550 1549 1549 1549
1521 1524 1527 1524 1518 1521 1524 1525 1523 1523 1525 1526 1527 1529 1531 1533 1536 1537 1539 1541 1543 1545 1547 1548 1549 1551 1552 1553 1554 1554 1555 1555 1556 1556 1556 1555 1555 1554 1553 1553 1552 1552 1551 1551 1551 1550 1550 1550 1550
1519 1525 1526 1523 1518 1521 1525 1525 1522 1522 1522 1523 1525 1527 1529 1531 1535 1537 1539 1540 1542 1544 1546 1548 1549 1551 1552 1553 1554 1555 1556 1556 1556 1557 1556 1556 1556 1555 1554 1554 1553 1553 1552 1552 1552 1551 1551 1551 1551
1519 1522 1523 1524 1521 1520 1525 1529 1525 1521 1521 1522 1523 1525 1527 1529 1532 1534 1537 1539 1541 1544 1545 1547 1549 1551 1552 1553 1554 1555 1556 1556 1557 1557 1557 1557 1556 1556 1555 1555 1554 1554 1553 1553 1553 1553 1552 1552 1552
1521 1515 1516 1520 1526 1532 1527 1540 1527 1521 1520 1519 1520 1522 1524 1527 1530 1532 1534 1537 1540 1542 1545 1547 1549 1550 1552 1553 1554 1555 1556 1556 1557 1558 1558 1558 1557 1557 1556 1556 1555 1555 1554 1554 1554 1554 1553 1553 1553
1514 1511 1514 1518 1525 1531 1529 1536 1529 1520 1520 1517 1516 1518 1521 1524 1527 1529 1532 1535 1538 1541 1543 1546 1548 1550 1552 1553 1554 1555 1556 1557 1557 1558 1558 1558 1558 1558 1557 1557 1557 1556 1556 1555 1555 1555 1554 1554 1554
1509 1514 1517 1522 1529 1539 1529 1533 1530 1519 1513 1510 1511 1514 1517 1520 1524 1527 1530 1533 1536 1540 1542 1545 1547 1549 1551 1553 1554 1555 1556 1557 1558 1558 1558 1558 1558 1558 1558 1558 1558 1557 1557 1556 1556 1556 1556 1555 1555
1513 1526 1539 1541 1544 1541 1524 1526 1522 1505 1502 1502 1506 1510 1513 1517 1521 1524 1528 1531 1534 1538 1541 1543 1546 1548 1551 1553 1554 1555 1556 1557 1558 1558 1559 1559 1559 1559 1559 1559 1558 1558 1558 1558 1557 1557 1557 1557 1556
1515 1523 1540 1547 1545 1538 1523 1525 1511 1497 1497 1499 1503 1507 1511 1514 1518 1521 1525 1528 1532 1535 1539 1542 1545 1547 1550 1552 1554 1555 1557 1557 1558 1559 1559 1559 1559 1559 1560 1559 1559 1559 1559 1559 1559 1558 1558 1558 1557
1515 1521 1521 1532 1532 1537 1529 1518 1505 1497 1497 1499 1503 1506 1509 1512 1515 1519 1523 1526 1530 1533 1537 1540 1543 1546 1549 1551 1553 1555 1556 1557 1558 1559 1559 1560 1560 1560 1560 1560 1560 1560 1560 1559 1559 1559 1559 1559 1558
1507 1513 1524 1531 1538 1541 1529 1521 1516 1505 1501 1500 1501 1504 1507 1510 1514 1517 1521 1524 1528 1532 1536 1540 1542 1545 1548 1550 1552 1554 1556 1557 1558 1559 1559 1560 1560 1560 1561 1561 1561 1560 1560 1560 1560 1560 1560 1559 1559
1510 1513 1518 1528 1531 1538 1539 1525 1499 1499 1497 1499 1500 1501 1504 1508 1511 1515 1519 1523 1527 1530 1534 1538 1541 1544 1547 1549 1552 1553 1555 1557 1558 1558 1559 1560 1560 1561 1561 1561 1561 1561 1561 1561 1560 1560 1560 1560 1559
1502 1506 1515 1528 1530 1530 1533 1523 1491 1492 1493 1495 1498 1500 1502 1505 1509 1513 1517 1521 1525 1528 1532 1536 1539 1543 1545 1548 1551 1553 1554 1556 1557 1558 1559 1559 1560 1561 1561 1561 1561 1561 1561 1561 1561 1561 1561 1560 1560